Location: Catacaguana
(10.4120°N, 66.7591°W)
Time: 05:24:03
(UTC+00:00)

CZ-4 R/B - Pass Details

Date: 27 May 2022
Orbit: 529 x 593 km, 97.7° (Epoch: 26 June)

Event Time Altitude Azimuth Distance (km) Brightness Sun altitude
Exits shadow 00:24:48 11° 207° (SSW) 1,746 3.8 -23.3°
Maximum altitude 00:27:48 24° 260° (W) 1,156 3.4 -23.9°
Drops below altitude 10° 00:31:02 10° 315° (NW) 1,834 5.0 -24.6°
Sets 00:33:30 0° 329° (NNW) 2,741 5.8 -25.1°
